Regional Weather Roundup
Issued by NWS Kansas City/Pleasant Hill, MO

Home | Current Version | Previous Version | Text Only | Print | Product List | Glossary On
Versions: 1 2 3 4 5 6 7 8 9 10 11 12 13 14 15 16 17 18 19 20 21 22 23 24 25 26 27 28 29 30 31 32 33 34 35 36 37 38 39 40 41 42 43 44 45 46 47 48 49 50
000
ASUS43 KEAX 281410
RWREAX

WEATHER ROUNDUP FOR EASTERN KANSAS AND NORTHWEST MISSOURI
NATIONAL WEATHER SERVICE KANSAS CITY/PLEASANT HILL MO
800 AM CST WED JAN 28 2015

KSZ040-057-103>105-MOZ028-029-037-043-281500-
...KANSAS CITY METROPOLITAN AREA...

CITY           SKY/WX    TMP DP  RH WIND       PRES   REMARKS
K.C. INTL      FAIR      40  31  70 S12       29.92F WCI  33
K.C. DOWNTOWN  CLEAR     41  31  67 CALM      29.95F
LEES SUMMIT    CLEAR     42  31  64 S10       29.96F
OLATHE - IXD   CLEAR     42  32  67 S13       29.95F
OLATHE - OJC   CLEAR     39  31  72 S8        29.94F WCI  33
LAWRENCE       CLEAR     35  29  78 E9        29.93F WCI  28

$$

MOZ001>008-011>017-020>025-030>033-038>040-044>046-053-054-281500-
...NORTHERN AND CENTRAL MISSOURI...

CITY           SKY/WX    TMP DP  RH WIND       PRES   REMARKS
ST. JOSEPH     CLEAR     36  30  79 SE8       29.92F WCI  30
MOSBY          FAIR      37  32  81 SE7       29.97S WCI  32
WARRENSBURG    CLEAR     41  32  70 SE10      30.00S WCI  35
WHITEMAN AFB   CLEAR     41  34  75 S12       30.00S WCI  34
CLINTON        CLEAR     43  36  75 SE8       30.02F
SEDALIA        CLEAR     40  33  76 S15       30.04S WCI  32
WARSAW         NOT AVBL
MARSHALL       CLEAR     37  34  87 SE10      30.04R WCI  30
CHILLICOTHE      N/A     33  29  85 SE10      30.02F WCI  25
MOBERLY        CLEAR     32  27  80 SE10G18   30.08S WCI  24
KIRKSVILLE     CLEAR     30  28  92 SE16      30.07S FOG     WCI  19

$$

MOZ041-047>049-056>058-063>065-088>090-097-281500-
...EASTERN AND SOUTHERN MISSOURI...

CITY           SKY/WX    TMP DP  RH WIND       PRES   REMARKS
ST. LOUIS INTL MOCLDY    31  27  85 SE13      30.23F FOG     WCI  21
SPIRIT OF STL  PTCLDY    30  26  85 SE5       30.22S WCI  25
COLUMBIA       CLEAR     32  29  88 SE18      30.08S WCI  20
JEFFERSON CITY CLEAR     33  29  85 E13       30.12S WCI  24
MEXICO         CLEAR     34  34 100 SE16      30.11F WCI  23
HANNIBAL       CLEAR     32  27  80 SE12G17   30.13F WCI  23
ROLLA          CLEAR     33  27  78 S18G28    30.11S WCI  22
LEBANON        CLEAR     37  30  75 SE17      30.11R WCI  28
OSAGE BEACH    CLEAR     37  28  70 S15G21    30.10R WCI  28
SPRINGFIELD    CLEAR     39  33  79 S16G30    30.07F WCI  30
BRANSON        PTCLDY    36  32  87 E12       30.14R WCI  27
NEVADA         CLEAR     45  34  65 S15       30.02S
JOPLIN         CLEAR     50  33  52 S10       30.03S
WEST PLAINS    CLEAR     31  27  85 SE7       30.21R WCI  24

$$

IAZ060-094-KSZ022-034>040-054-083-096-NEZ052-066-093-281500-
...KANSAS...SOUTHEAST NEBRASKA AND IOWA...

CITY           SKY/WX    TMP DP  RH WIND       PRES   REMARKS
TOPEKA         CLEAR     33  29  85 E3        29.90F
MANHATTAN      PTCLDY    30  29  96 CALM      29.86F
EMPORIA        CLEAR     41  35  79 S15       29.90F WCI  33
CHANUTE        CLEAR     47  37  68 S15       29.97F
WICHITA        MOCLDY    42  35  76 S10       29.90S
OMAHA          MOCLDY    34  29  82 SE12      29.88F WCI  25
LINCOLN        CLEAR     31  27  85 SE7       29.85F WCI  24
FALLS CITY     CLEAR     34  28  79 SE7       29.88F WCI  28
LAMONI         CLEAR     30  27  88 SE10G18   29.96F FOG     WCI  21
DES MOINES     CLOUDY    31  26  82 SE13      30.00F HAZE    WCI  21

$$



USA.gov is the U.S. government's official web portal to all federal, state and local government web resources and services.